User: anonymous   Login
Location: Johnson City
(36.3130°N, 82.3540°W)
Time: 20:43:05
(UTC-05:00)
Language:

Tiangong 2 - Orbit

View from above orbital plane
View from above orbital plane
View from above satellite
View from above satellite

Ground track
Ground track

The orbit data is extracted from the following two-line orbital elements,

1 41765U 16057A   19020.79072877 +.00002968 +00000-0 +39574-4 0  9998
2 41765 042.7842 125.6492 0008626 320.1362 181.5504 15.60475896134003
Epoch (UTC): 20 January 2019 18:58:38
Eccentricity: 0.0008626
inclination: 42.7842°
perigee height: 380 km
apogee height: 392 km
right ascension of ascending node: 125.6492°
argument of perigee: 320.1362°
revolutions per day: 15.60475896
mean anomaly at epoch: 181.5504°
orbit number at epoch: 13400

The dashed part of the orbit path shows where the satellite is in the earth's shadow,  

DLR